User: anonymous   Login
Location: Unspecified
(0.0000°N, 0.0000°E)
Time: 04:38:41
(UTC+00:00)
Language:

ESSA 9 - Orbit

View from above orbital plane
View from above orbital plane
View from above satellite
View from above satellite

Ground track
Ground track

The orbit data is extracted from the following two-line orbital elements,

1  3764U 69016A   18020.63531663 -.00000038 +00000-0 +42884-4 0  9998
2  3764 101.7603 083.5307 0050633 285.7723 230.0819 12.49835377604346
Epoch (UTC): 20 January 2018 15:14:51
Eccentricity: 0.0050633
inclination: 101.7603°
perigee height: 1425 km
apogee height: 1505 km
right ascension of ascending node: 83.5307°
argument of perigee: 285.7723°
revolutions per day: 12.49835377
mean anomaly at epoch: 230.0819°
orbit number at epoch: 60434

The dashed part of the orbit path shows where the satellite is in the earth's shadow,  

DLR